Location: Seven Kings
(51.5667°N, 0.1000°E)
Time: 12:01:54
(UTC+00:00)

CZ-4C R/B - Pass Details

Date: 29 October 2020
Orbit: 624 x 1378 km, 63.4° (Epoch: 24 November)

Event Time Altitude Azimuth Distance (km) Brightness Sun altitude
Rises 18:37:52 0° 310° (NW) 3,609 6.3 -19.2°
Reaches altitude 10° 18:40:21 10° 316° (NW) 2,770 5.5 -19.6°
Maximum altitude 18:46:46 48° 31° (NNE) 1,459 3.2 -20.6°
Enters shadow 18:49:37 34° 80° (E) 1,868 3.4 -21.0°
